DW8482 Tortoreto Alto IT current weather conditions

sailwx.info

Wind from 279 at 3 knots gusting 3

Air temperature 12.2° C
Dewpoint 10.5° C

Last reported at 2014-Nov-29 07:47 UTC.
Time now 2014-Nov-29 08:37 UTC

Location: N 42°48' E 013°54'.
View on Google Maps.

See reports from other nearby stations

  
Tides and Currents Weather Stations Pressure Air Temp Water Temp Dewpoint Dewpoint Depression Visibility Wind Speed Wind Dir Waves Ship Positions
date/time (UTC)wind fromknots sea level pressurealtimeterstation pressurevisibilityair tempwater tempwave heightnotes
2014-Nov-29 07:47 279 3 gusting 3 12.2
2014-Nov-29 07:32 251 1 gusting 6 40.0
2014-Nov-29 07:17 291 40.0
2014-Nov-29 07:02 271 40.0
2014-Nov-29 06:47 267 12.2
2014-Nov-29 06:32 253 12.2
2014-Nov-29 06:17 281 2 gusting 5 12.2
2014-Nov-29 06:02 278 3 gusting 4 12.2
2014-Nov-29 05:57 265 3 gusting 5 12.2
2014-Nov-29 05:52 268 4 gusting 5 12.2
2014-Nov-29 05:47 263 0 gusting 5 40.0
2014-Nov-29 05:32 277 12.2
2014-Nov-29 05:17 276 1 gusting 4 12.2
2014-Nov-29 05:02 302 12.2
2014-Nov-29 04:57 290 0 gusting 7 40.0
2014-Nov-29 04:52 292 7 gusting 7 40.0
2014-Nov-29 04:47 298 3 gusting 4 40.0
2014-Nov-29 04:32 294 12.2
2014-Nov-29 04:17 301 12.8
2014-Nov-29 04:02 280 12.8
2014-Nov-29 03:57 265 1 gusting 4 12.8
2014-Nov-29 03:52 306 12.8
2014-Nov-29 03:47 297 2 gusting 5 12.8
2014-Nov-29 03:32 298 40.6
2014-Nov-29 03:17 294 1 gusting 5 40.6
2014-Nov-29 03:02 291 40.0
2014-Nov-29 02:57 304 40.0
2014-Nov-29 02:52 308 2 gusting 4 12.2
2014-Nov-29 02:47 287 40.6
2014-Nov-29 02:32 294 40.6
2014-Nov-29 02:17 292 0 gusting 3 12.8
2014-Nov-29 02:02 319 12.8
2014-Nov-29 01:57 295 40.6
2014-Nov-29 01:52 265 12.2
2014-Nov-29 01:47 265 12.8
2014-Nov-29 01:32 325 12.8
2014-Nov-29 01:17 009 12.8
2014-Nov-29 01:02 009 12.8
2014-Nov-29 00:57 309 12.8
2014-Nov-29 00:52 309 12.8
2014-Nov-29 00:47 302 0 gusting 4 12.8
2014-Nov-29 00:32 327 12.8
2014-Nov-29 00:17 283 40.6
2014-Nov-29 00:02 283 1 gusting 3 40.6
2014-Nov-28 23:57 256 12.8
2014-Nov-28 23:52 248 12.8
2014-Nov-28 23:47 148 13.3
2014-Nov-28 23:32 148 13.3
2014-Nov-28 23:12 148 13.3
2014-Nov-28 23:02 148 13.3
2014-Nov-28 22:57 148 13.3
2014-Nov-28 22:52 257 41.7
2014-Nov-28 22:47 257 13.3
2014-Nov-28 22:32 257 13.3
2014-Nov-28 22:17 257 1 gusting 4 40.6
2014-Nov-28 22:02 257 4 gusting 4 41.1
2014-Nov-28 21:57 257 41.7
2014-Nov-28 21:52 257 1 gusting 3 41.7
2014-Nov-28 21:47 257 13.3
2014-Nov-28 21:32 257 1 gusting 4 13.3
2014-Nov-28 21:17 253 41.7
2014-Nov-28 21:02 253 13.3
2014-Nov-28 20:57 253 13.3
2014-Nov-28 20:52 253 13.3
2014-Nov-28 20:47 253 13.3
2014-Nov-28 20:32 252 12.8
2014-Nov-28 20:17 252 2 gusting 3 12.8
2014-Nov-28 20:02 252 2 gusting 3 13.3
2014-Nov-28 19:57 252 2 gusting 4 13.3
2014-Nov-28 19:52 252 1 gusting 4 13.3
2014-Nov-28 19:47 252 3 gusting 4 13.3
2014-Nov-28 19:32 252 42.2
2014-Nov-28 19:17 252 13.3
2014-Nov-28 19:02 252 2 gusting 3 41.1
2014-Nov-28 18:57 252 1 gusting 4 40.6
2014-Nov-28 18:52 255 0 gusting 4 12.8
2014-Nov-28 18:47 256 2 gusting 4 41.1
2014-Nov-28 18:32 267 1 gusting 2 13.3
2014-Nov-28 18:17 267 41.1
2014-Nov-28 18:02 273 2 gusting 2 41.7
2014-Nov-28 17:57 311 41.7
2014-Nov-28 17:52 311 41.7
2014-Nov-28 17:47 311 41.7
2014-Nov-28 17:32 311 13.3
2014-Nov-28 17:17 311 41.7
2014-Nov-28 17:02 311 1 gusting 2 41.7
2014-Nov-28 16:57 339 13.3
2014-Nov-28 16:52 294 13.3
2014-Nov-28 16:47 294 13.3
2014-Nov-28 16:32 294 13.3
2014-Nov-28 16:17 294 13.3
2014-Nov-28 16:02 294 42.2
2014-Nov-28 15:47 129 13.9
2014-Nov-28 15:32 129 42.2
2014-Nov-28 15:17 129 13.9
2014-Nov-28 15:02 078 13.9
2014-Nov-28 14:47 078 13.9
2014-Nov-28 14:02 038 15.0
2014-Nov-28 12:07 101 1 gusting 4 42.8
2014-Nov-28 12:02 086 14.4
2014-Nov-28 11:57 097 14.4
2014-Nov-28 11:52 101 2 gusting 4 14.4
2014-Nov-28 11:47 041 14.4
2014-Nov-28 07:28 210 40.6
2014-Nov-28 07:18 214 4 gusting 4 12.8
2014-Nov-28 07:03 220 12.2
2014-Nov-28 06:58 240 12.2
2014-Nov-28 06:53 279 12.2
2014-Nov-28 06:48 279 40.0
2014-Nov-28 05:48 051 12.2
2014-Nov-28 05:33 046 12.2
2014-Nov-28 05:18 046 12.2
2014-Nov-28 05:03 046 40.6
2014-Nov-28 04:58 046 41.1
2014-Nov-28 04:53 046 41.1
2014-Nov-28 04:48 046 13.3
2014-Nov-28 04:33 246 41.7
2014-Nov-28 04:18 141 13.3
2014-Nov-28 04:03 254 41.1
2014-Nov-28 03:58 262 1 gusting 2 13.3
2014-Nov-28 03:53 248 13.3
2014-Nov-28 03:48 250 13.3
2014-Nov-28 03:33 227 0 gusting 2 13.3
2014-Nov-28 03:18 223 1 gusting 1 41.1
2014-Nov-28 03:03 215 41.7
2014-Nov-28 02:58 229 1 gusting 1 13.3
2014-Nov-28 02:53 227 13.3
2014-Nov-28 02:48 250 13.3
2014-Nov-28 02:33 236 13.3
2014-Nov-28 02:18 188 13.3
2014-Nov-28 02:03 094 41.7
2014-Nov-28 01:58 121 2 gusting 2 41.7
2014-Nov-28 01:53 057 13.3
2014-Nov-28 01:48 082 0 gusting 3 13.3
2014-Nov-28 01:33 088 12.8
2014-Nov-28 01:18 024 40.0
2014-Nov-28 01:03 267 12.2
2014-Nov-28 00:58 110 12.2
2014-Nov-28 00:53 110 40.0
2014-Nov-28 00:48 096 12.8
2014-Nov-28 00:33 233 40.6
2014-Nov-28 00:18 124 12.2
2014-Nov-28 00:03 046 12.8
2014-Nov-27 23:58 102 40.6
2014-Nov-27 23:53 202 12.8
2014-Nov-27 23:48 348 40.6
2014-Nov-27 23:33 037 40.6
2014-Nov-27 23:18 034 12.8
2014-Nov-27 23:03 091 12.8
2014-Nov-27 22:58 091 40.0
2014-Nov-27 22:53 116 40.0
2014-Nov-27 22:48 205 40.0
2014-Nov-27 22:33 278 12.8
2014-Nov-27 22:18 278 40.6
2014-Nov-27 22:03 292 40.6
2014-Nov-27 21:58 224 40.6
2014-Nov-27 21:53 224 40.6
2014-Nov-27 21:48 205 12.8
2014-Nov-27 21:33 177 41.1
2014-Nov-27 21:18 204 41.1
2014-Nov-27 21:03 201 1 gusting 4 41.1
2014-Nov-27 20:58 208 0 gusting 3 13.3
2014-Nov-27 20:53 205 40.6
2014-Nov-27 20:48 200 0 gusting 1 41.7
2014-Nov-27 20:33 114 41.1
2014-Nov-27 20:18 180 41.7
2014-Nov-27 20:03 212 1 gusting 4 41.7
2014-Nov-27 19:58 197 0 gusting 6 41.7
2014-Nov-27 19:53 202 3 gusting 6 41.7
2014-Nov-27 19:48 194 41.7
2014-Nov-27 19:33 242 41.7
2014-Nov-27 19:18 134 2 gusting 4 41.1
2014-Nov-27 19:03 105 41.1
2014-Nov-27 18:58 105 41.1
2014-Nov-27 18:53 105 41.1
2014-Nov-27 18:48 071 41.1
2014-Nov-27 18:33 304 41.1
2014-Nov-27 18:18 188 1 gusting 6 41.1
2014-Nov-27 18:03 005 41.1
2014-Nov-27 17:58 217 12.8
2014-Nov-27 17:53 217 41.1
2014-Nov-27 17:48 316 13.3
2014-Nov-27 17:32 273 41.1
2014-Nov-27 17:17 240 41.1
2014-Nov-27 17:02 228 41.1
2014-Nov-27 16:57 225 41.1
2014-Nov-27 16:52 005 41.1
2014-Nov-27 16:47 005 41.1
2014-Nov-27 16:32 005 41.1
2014-Nov-27 16:17 005 41.7
2014-Nov-27 16:02 048 41.7
2014-Nov-27 15:57 052 0 gusting 2 42.2
2014-Nov-27 15:52 042 0 gusting 2 41.7
2014-Nov-27 15:47 042 1 gusting 2 42.2
2014-Nov-27 15:32 034 2 gusting 4 42.2
2014-Nov-27 15:17 040 13.9
2014-Nov-27 15:02 318 42.2
2014-Nov-27 14:57 318 42.2
2014-Nov-27 14:52 320 1 gusting 6 42.8
2014-Nov-27 14:47 308 2 gusting 6 42.8
2014-Nov-27 14:32 051 14.4
2014-Nov-27 14:17 051 42.8
2014-Nov-27 14:02 050 1 gusting 3 42.8
2014-Nov-27 13:57 047 2 gusting 3 42.8
2014-Nov-27 13:52 036 1 gusting 3 42.8
2014-Nov-27 13:47 074 2 gusting 3 42.8
2014-Nov-27 13:32 051 42.8
2014-Nov-27 13:17 059 6 gusting 7 43.3
2014-Nov-27 13:02 042 3 gusting 5 44.4
2014-Nov-27 12:57 057 4 gusting 6 44.4
2014-Nov-27 12:52 052 4 gusting 6 44.4
2014-Nov-27 12:47 058 3 gusting 6 45.0
2014-Nov-27 12:32 091 2 gusting 4 44.4
2014-Nov-27 12:17 090 43.9
2014-Nov-27 12:02 060 43.9
2014-Nov-27 11:57 067 3 gusting 6 43.9
2014-Nov-27 11:52 046 5 gusting 6 44.4
2014-Nov-27 11:47 064 3 gusting 4 43.9
2014-Nov-27 11:32 105 3 gusting 4 43.3
2014-Nov-27 11:17 092 43.3
2014-Nov-27 11:02 059 2 gusting 3 43.3
2014-Nov-27 10:57 050 2 gusting 2 43.3
2014-Nov-27 10:52 075 43.3
2014-Nov-27 10:47 107 43.3
2014-Nov-27 10:32 030 2 gusting 3 43.3
2014-Nov-27 10:17 069 3 gusting 4 43.3
2014-Nov-27 10:02 067 1 gusting 2 42.8
2014-Nov-27 09:57 117 0 gusting 4 42.8
2014-Nov-27 09:52 053 3 gusting 4 42.8
2014-Nov-27 09:47 061 1 gusting 4 42.8
2014-Nov-27 09:32 053 3 gusting 6 43.3
2014-Nov-27 09:17 096 2 gusting 5 43.3
2014-Nov-27 09:02 053 2 gusting 5 45.0
2014-Nov-27 08:57 097 1 gusting 4 46.7
2014-Nov-27 08:52 244 46.7
2014-Nov-27 08:47 244 46.7
2014-Nov-27 08:32 243 43.9
2014-Nov-27 08:17 244 12.8
2014-Nov-27 08:02 243 12.8